STARLINK-30306, 57633

Orbit data source: Space-Track

STARLINK-30306, 57633 is a payload satellite owned by SpaceX/Seattle (US) in LEO that was launched on Thu, 17 Aug 2023 UTC via an FALCON 9 launch vehicle from the Air Force Eastern Test Range (AFETR). Payload-class satellites include a variety of spacecraft equipped with specific instruments for various scientific and technological missions. These include communications satellites like Starlink; space stations such as the ISS; scientific satellites like the Hubble; Earth observation satellites from companies like Planet Labs, Umbra, and HawkEye 360; GPS; miniature CubeSats for education and research; and military/defense satellites.

Loading next visibility...
Identifier
57633, 2023-122B
Orbit
LEO
Country
Flag of USUS
Related business
Manufacturer
SpaceX/Seattle
Mission
Operational Commercial Communications
Bus & Motor
STARLINK V2M, Unknown motor
Mass
730 kg wet, ~700 kg dry
Launch date (UTC)
2023-08-17 (2 years ago)
Launch vehicle
FALCON 9
Launch site
Air Force Eastern Test Range (AFETR)
Object type
Payload
Rocket body
Debris
Shape & HBR
Box + 2 Pan, 14.5 m
Radar Cross Section
33.884 m², Large (>1 m²)

Expand to show TLE details & history
Last TLE update: 7 hours ago

TLE from 7 hours ago
0 STARLINK-30306
1 57633U 23122B   25243.46963462 -.00000248  00000-0 -32526-5 0  9999
2 57633  43.0030  48.5926 0001040 263.6491  96.4233 15.02544717113565
Epoch: 2025-08-31T11:16Z
TLE epoch observation values (Epoch: 2025-08-31T11:16:16.431Z)
Latitude
Longitude
-100.36499°
Altitude
558.912 km
Speed
7.584 km/s
True Right ascension
03h 14m 22s
True Declination
0° 00' 00"
Sunlit
Object was in daylight at epoch
Visualization orbit readout
Latitude
Unknown
Longitude
Unknown
Altitude
Unknown
Speed
Unknown
Apparent Right ascension
Unknown
Apparent Declination
Unknown
Sunlit
N/A
Visualization observer readout
Local Sidereal Time
10:25:24
Azimuth
Unknown
Elevation
Unknown
Doppler factor
Unknown
Orbital elements
Apogee altitude
561.698 km
Perigee altitude
560.254 km
Semi-major axis
6,939.113 km
Eccentricity
0.0001
Inclination
43.003°
RAAN
48.5926°
Arg. of periapsis
263.6491°
True anomaly
96.43514°
Mean anomaly
96.4233°
Eccentric anomaly
96.42922°
Mean motion
3.7548 °/min
Orbital period
95.88 mins
BSTAR
-0.0000032526
Loading maneuver chart data...
Computing Atmospheric mass density...
Loading historical data...
Loading historical data...
Loading historical data...
Loading historical data...
Loading historical data...
Loading historical data...
Loading historical data...

Documentation

Showing up to 5 results
|